Regional Weather Roundup
Issued by NWS

Home | Current Version | Previous Version | Graphics & Text | Print | Product List | Glossary On
Versions: 1 2 3 4 5 6 7 8 9 10 11 12 13 14 15 16 17 18 19 20 21 22 23 24 25 26 27
000
ASUS45 KBOU 192310
RWRCO

WEATHER ROUNDUP FOR COLORADO
NATIONAL WEATHER SERVICE DENVER/BOULDER CO
500 PM MDT SAT MAY 19 2018

NOTE: "FAIR" INDICATES FEW OR NO CLOUDS BELOW 12000 FEET WITH NO
SIGNIFICANT WEATHER AND/OR OBSTRUCTIONS TO VISIBILITY.

COZ001>005-013-030-031-200000-
...NORTHWEST COLORADO...

CITY           SKY/WX    TMP DP  RH WIND       PRES   REMARKS
CRAIG          FAIR      64  40  41 NE17      30.00S
HAYDEN         FAIR      61  37  41 E20       30.03F
MEEKER         TSTM      52  41  66 W5        30.06R
RANGELY        FAIR      70  35  28 CALM      29.95F
RABBIT EARS PA CLOUDY    34  34 100 E8G16     30.23F FOG     WCI  27
STEAMBOAT SPGS FAIR      57  37  47 E13G18    30.06F
WALDEN         PTSUNNY   50  32  50 CALM      30.17F
$$

COZ006>008-011-200000-
...WEST CENTRAL VALLEYS...

CITY           SKY/WX    TMP DP  RH WIND       PRES   REMARKS
GRAND JUNCTION FAIR      72  31  22 NW15G22   29.91F
MONTROSE       FAIR      73  29  19 NW24G33   29.94R
EAGLE          CLOUDY    57  39  51 W14       30.11R
RIFLE          FAIR      65  41  41 N3        29.99S
DELTA          FAIR      75  25  15 NW17G31   29.89F
NUCLA          FAIR      75  23  14 S9G21     29.98S
$$

COZ017>023-064>068-200000-
...SOUTHWEST COLORADO...

CITY           SKY/WX    TMP DP  RH WIND       PRES   REMARKS
DURANGO        PTSUNNY   71  23  16 VRB7      29.98F
CORTEZ         FAIR      76  16  10 SW6G18    29.95F
PAGOSA SPRINGS FAIR      65  20  17 W8        30.07F
TELLURIDE      CLOUDY    57  22  25 W10       30.16S
WOLF CREEK PAS CLOUDY    41  21  45 W8G16     30.35F
$$

COZ009-010-012-014-032>034-037-058>063-200000-
...CENTRAL COLORADO...

CITY           SKY/WX    TMP DP  RH WIND       PRES   REMARKS
ASPEN          PTSUNNY   52  32  46 N15G28    30.11R
BUENA VISTA    PTSUNNY   48  37  66 CALM      30.15R
COPPER MTN     FAIR      45  32  61 N5        30.28S
BERTHOUD PASS  HAZE      27  16  63 NW7       30.31F VSB<1/4 WCI  19
COTTONWOOD PAS LGT RAIN  45  41  87 CALM      30.21S
GUNNISON       FAIR      62  27  26 S18G25    30.03R
GRANBY         DRIZZLE   42  39  89 E9        30.18F
KREMMLING      FAIR      61  36  39 N6        30.12S
LEADVILLE      FAIR      50  26  39 S6        30.14F
MONARCH PASS   LGT SNOW  36  27  69 MISG      30.38S
SALIDA         CLOUDY    55  42  63 NW21      30.19R
SUNLIGHT       CLOUDY    37  28  70 W8G18     30.26F
WILKERSON PASS CLOUDY    34  32  93 SW8       30.31R VSB<1/4 WCI  27
$$

COZ069>075-200000-
...SAN LUIS VALLEY/SANGRE DE CRISTO MOUNTAINS...

CITY           SKY/WX    TMP DP  RH WIND       PRES   REMARKS
ALAMOSA        FAIR      65  22  19 N20       30.03S
DEL NORTE      FAIR      63  25  23 W13G21    30.08F
LA VETA PASS   CLOUDY    43  37  81 N16G29    30.35R
SAGUACHE       NOT AVBL
$$

COZ035-036-038>040-200000-
...NORTHERN COLORADO FRONT RANGE...

CITY           SKY/WX    TMP DP  RH WIND       PRES   REMARKS
DENVER INTL AP PTSUNNY   47  42  83 N16       30.18F
AURORA         CLOUDY    45  45  99 NW10      30.20R
FRONT RANGE AP PTSUNNY   48  46  93 N17G24    30.19F
ERIE MUNI ARPT CLOUDY    49  41  73 NE12      30.25S
BOULDER MUN AP CLOUDY    48  43  81 N5        30.20S
CENTENNIAL     CLOUDY    45  40  82 NW12      30.20R
BROOMFIELD     CLOUDY    46  41  81 N12       30.21S
FORT COLLINS   CLOUDY    50  41  71 N8        30.21R
LONGMONT       CLOUDY    53  42  66 NE5       30.22S
$$

COZ041-046-047-076>085-087-088-200000-
...PIKES PEAK/PALMER DIVIDE AND SOUTHERN FOOTHILLS...

CITY           SKY/WX    TMP DP  RH WIND       PRES   REMARKS
COLO. SPRINGS  PTSUNNY   49  39  68 N31G39    30.13R
A. F. ACADEMY  CLOUDY    44  40  85 N17G31    30.17R
SCHRIEVER AFB  NOT AVBL
CHEYENNE MTN   PTSUNNY   44  41  88 N18G24    30.09R
ELLICOTT         N/A    N/A N/A N/A N21G31    30.12R
FALCON         FAIR      46  37  70 N21G33    30.16R
FORT CARSON    LGT RAIN  50  39  66 N24G33    30.11R
LIMON          PTSUNNY   47  40  76 N23G32    30.14S
MONUMENT HILL  CLOUDY    39  36  87 NW16      30.21R
CANON CITY     CLOUDY    52  48  87 S16       30.06F
WALSENBURG     CLOUDY    52  46  82 N20G28    30.11R
TRINIDAD       FAIR      62  45  53 E16G24    30.04R
$$

COZ042>045-048>051-090-091-200000-
...NORTHEAST COLORADO...

CITY           SKY/WX    TMP DP  RH WIND       PRES   REMARKS
GREELEY ARPT   CLOUDY    49  41  74 N14       30.20R
AKRON          CLOUDY    45  43  93 N21G32    30.15R
BURLINGTON     CLOUDY    53  44  71 N21G36    30.08R
WRAY           DRIZZLE   46  45  93 N21G32    30.11R
YUMA           LGT RAIN  43  43 100 N16       30.13R
STERLING       LGT RAIN  45  45 100 N24G30    30.14R
HOLYOKE        LGT RAIN  46  45  93 N21G26    30.12R
FORT MORGAN    DRIZZLE   46  43  88 N21       30.17S
$$

COZ086-089-092>099-200000-
...SOUTHEAST COLORADO...

CITY           SKY/WX    TMP DP  RH WIND       PRES   REMARKS
PUEBLO         PTSUNNY   57  44  62 N29G36    30.04F
LA JUNTA       FAIR      66  43  43 N25G36    30.06R
LAMAR          CLOUDY    65  42  43 N22G30    30.03R
SPRINGFIELD      N/A     67  46  47 N16       30.02R
$$




USA.gov is the U.S. government's official web portal to all federal, state and local government web resources and services.